AAL2299 KDCA-KORD

Flight info

Callsign AAL2299
Flight time 1h 33m
Altitude 34000
Route WYNGS5 RAMAY Q72 HACKS J149 ROD WATSN4
Aircraft B738/M-SDE2E3FGHIRWXY/LB1

Departure

Time 2026-04-23 03:20
Airport Ronald Reagan Washington National Airport (KDCA)

Arrival

Time 2026-04-23 04:53
Airport Chicago O'Hare International Airport (KORD)
Time Latitude Longitude Altitude Speed Heading
2026-04-23 02:50 38.85557 -77.04219 23 ft 0 kts 337°
2026-04-23 02:55 38.85557 -77.04218 23 ft 0 kts 337°
2026-04-23 03:08 38.85541 -77.04210 28 ft 4 kts 337°
2026-04-23 03:08 38.85519 -77.04199 27 ft 4 kts 10°
2026-04-23 03:09 38.85506 -77.04216 24 ft 4 kts 71°
2026-04-23 03:09 38.85499 -77.04242 25 ft 4 kts 72°
2026-04-23 03:09 38.85497 -77.04252 28 ft 0 kts 72°
2026-04-23 03:12 38.85498 -77.04247 28 ft 2 kts 72°
2026-04-23 03:13 38.85513 -77.04188 25 ft 12 kts 72°
2026-04-23 03:13 38.85541 -77.04076 23 ft 14 kts 67°
2026-04-23 03:13 38.85622 -77.04040 23 ft 13 kts 356°
2026-04-23 03:13 38.85710 -77.04048 26 ft 13 kts 355°
2026-04-23 03:14 38.85798 -77.04057 26 ft 13 kts 355°
2026-04-23 03:14 38.85891 -77.04066 27 ft 7 kts 358°
2026-04-23 03:14 38.85914 -77.04063 27 ft 2 kts 16°
2026-04-23 03:14 38.85924 -77.04056 25 ft 1 kts 36°
2026-04-23 03:15 38.85931 -77.04046 23 ft 1 kts 55°
2026-04-23 03:15 38.85934 -77.04035 26 ft 1 kts 68°
2026-04-23 03:15 38.85937 -77.04018 23 ft 3 kts 82°
2026-04-23 03:15 38.85950 -77.03980 27 ft 6 kts 43°
2026-04-23 03:16 38.85995 -77.03959 25 ft 7 kts 16°
2026-04-23 03:16 38.86001 -77.03957 26 ft 0 kts 17°
2026-04-23 03:18 38.86006 -77.03955 25 ft 4 kts 17°
2026-04-23 03:18 38.86074 -77.03925 24 ft 14 kts 33°
2026-04-23 03:18 38.86075 -77.03872 22 ft 4 kts 154°
2026-04-23 03:19 38.86045 -77.03866 23 ft 4 kts 175°
2026-04-23 03:19 38.86015 -77.03863 27 ft 4 kts 175°
2026-04-23 03:19 38.85866 -77.03848 27 ft 54 kts 175°
2026-04-23 03:19 38.85250 -77.03786 24 ft 122 kts 175°
2026-04-23 03:20 38.84240 -77.03687 223 ft 157 kts 175°
2026-04-23 03:20 38.83125 -77.03600 844 ft 168 kts 178°
2026-04-23 03:20 38.81886 -77.03486 1300 ft 190 kts 180°
2026-04-23 03:20 38.80486 -77.03370 1725 ft 212 kts 182°
2026-04-23 03:21 38.78968 -77.03348 2245 ft 225 kts 185°
2026-04-23 03:21 38.77320 -77.03438 2506 ft 249 kts 193°
2026-04-23 03:21 38.75703 -77.04301 2902 ft 256 kts 226°
2026-04-23 03:21 38.74748 -77.06206 3557 ft 253 kts 259°
2026-04-23 03:22 38.74574 -77.08423 4290 ft 255 kts 270°
2026-04-23 03:22 38.74517 -77.10717 4706 ft 259 kts 269°
2026-04-23 03:22 38.74436 -77.13007 4883 ft 256 kts 269°
2026-04-23 03:22 38.74330 -77.15314 5043 ft 260 kts 268°
2026-04-23 03:23 38.74202 -77.17640 5095 ft 264 kts 267°
2026-04-23 03:23 38.74042 -77.19980 5041 ft 264 kts 267°
2026-04-23 03:23 38.73884 -77.22324 5266 ft 265 kts 267°
2026-04-23 03:23 38.73846 -77.24668 6003 ft 266 kts 283°
2026-04-23 03:24 38.74511 -77.26870 6856 ft 262 kts 299°
2026-04-23 03:24 38.75433 -77.28885 7639 ft 263 kts 303°
2026-04-23 03:24 38.76409 -77.30873 8423 ft 264 kts 304°
2026-04-23 03:24 38.77393 -77.32862 9224 ft 265 kts 304°
2026-04-23 03:25 38.78377 -77.34862 10050 ft 266 kts 304°
2026-04-23 03:25 38.79379 -77.36912 10456 ft 281 kts 304°
2026-04-23 03:25 38.80456 -77.39126 10621 ft 304 kts 304°
2026-04-23 03:25 38.81625 -77.41543 10779 ft 325 kts 303°
2026-04-23 03:26 38.82846 -77.44080 10917 ft 345 kts 303°
2026-04-23 03:26 38.84131 -77.46762 11182 ft 358 kts 303°
2026-04-23 03:26 38.85443 -77.49507 11700 ft 363 kts 303°
2026-04-23 03:26 38.86741 -77.52232 12669 ft 357 kts 303°
2026-04-23 03:27 38.88053 -77.54984 13051 ft 368 kts 303°
2026-04-23 03:27 38.89404 -77.57816 13530 ft 375 kts 303°
2026-04-23 03:27 38.90769 -77.60681 14093 ft 378 kts 302°
2026-04-23 03:27 38.92149 -77.63578 14662 ft 382 kts 303°
2026-04-23 03:28 38.93511 -77.66509 15310 ft 384 kts 299°
2026-04-23 03:28 38.94356 -77.69780 15928 ft 391 kts 281°
2026-04-23 03:28 38.94534 -77.73285 16548 ft 396 kts 275°
2026-04-23 03:28 38.94608 -77.76835 17094 ft 400 kts 275°
2026-04-23 03:29 38.94701 -77.80423 17615 ft 404 kts 275°
2026-04-23 03:29 38.94818 -77.84040 18152 ft 407 kts 275°
2026-04-23 03:29 38.94946 -77.87683 18656 ft 410 kts 275°
2026-04-23 03:29 38.95076 -77.91351 19143 ft 412 kts 275°
2026-04-23 03:30 38.95207 -77.95043 19613 ft 415 kts 275°
2026-04-23 03:30 38.95337 -77.98764 20059 ft 418 kts 275°
2026-04-23 03:30 38.95466 -78.02511 20514 ft 421 kts 275°
2026-04-23 03:30 38.95594 -78.06281 20986 ft 424 kts 275°
2026-04-23 03:31 38.95721 -78.10078 21446 ft 426 kts 275°
2026-04-23 03:31 38.95848 -78.13895 21880 ft 429 kts 275°
2026-04-23 03:31 38.95975 -78.17734 22306 ft 431 kts 275°
2026-04-23 03:31 38.96101 -78.21593 22723 ft 434 kts 275°
2026-04-23 03:32 38.96276 -78.25473 23123 ft 436 kts 277°
2026-04-23 03:32 38.96523 -78.29363 23510 ft 438 kts 278°
2026-04-23 03:32 38.96704 -78.31946 23752 ft 439 kts 278°
2026-04-23 03:32 38.96984 -78.35873 24083 ft 441 kts 278°
2026-04-23 03:33 38.97259 -78.39811 24414 ft 443 kts 278°
2026-04-23 03:33 38.97527 -78.43771 24726 ft 445 kts 278°
2026-04-23 03:33 38.97787 -78.47750 25042 ft 447 kts 278°
2026-04-23 03:33 38.98043 -78.51742 25327 ft 449 kts 278°
2026-04-23 03:34 38.98296 -78.55751 25631 ft 451 kts 278°
2026-04-23 03:34 38.98546 -78.59773 25927 ft 452 kts 278°
2026-04-23 03:34 38.98797 -78.63816 26210 ft 455 kts 278°
2026-04-23 03:34 38.99047 -78.67876 26490 ft 457 kts 278°
2026-04-23 03:35 38.99298 -78.71956 26764 ft 458 kts 278°
2026-04-23 03:35 38.99547 -78.76039 27102 ft 458 kts 278°
2026-04-23 03:35 38.99794 -78.80116 27527 ft 456 kts 278°
2026-04-23 03:35 39.00038 -78.84168 27972 ft 454 kts 278°
2026-04-23 03:36 39.00282 -78.88217 28354 ft 454 kts 278°
2026-04-23 03:36 39.00523 -78.92262 28711 ft 454 kts 278°
2026-04-23 03:36 39.00764 -78.96308 29118 ft 453 kts 278°
2026-04-23 03:36 39.01001 -79.00339 29564 ft 451 kts 278°
2026-04-23 03:37 39.01237 -79.04351 29983 ft 450 kts 279°
2026-04-23 03:37 39.01471 -79.08360 30303 ft 449 kts 278°
2026-04-23 03:37 39.01705 -79.12367 30601 ft 449 kts 278°
2026-04-23 03:37 39.01936 -79.16367 30936 ft 448 kts 278°
2026-04-23 03:38 39.02173 -79.20362 31277 ft 447 kts 279°
2026-04-23 03:38 39.02428 -79.24341 31560 ft 447 kts 279°
2026-04-23 03:38 39.02693 -79.28318 31878 ft 446 kts 279°
2026-04-23 03:38 39.02957 -79.32282 32215 ft 445 kts 279°
2026-04-23 03:39 39.03218 -79.36240 32554 ft 443 kts 279°
2026-04-23 03:39 39.03473 -79.40137 32819 ft 443 kts 279°
2026-04-23 03:39 39.03729 -79.44090 33117 ft 443 kts 279°
2026-04-23 03:39 39.03981 -79.48029 33466 ft 441 kts 279°
2026-04-23 03:40 39.04230 -79.51957 33795 ft 440 kts 279°
2026-04-23 03:40 39.04477 -79.55876 34061 ft 440 kts 279°
2026-04-23 03:40 39.04973 -79.63764 34120 ft 444 kts 279°
2026-04-23 03:41 39.05459 -79.71645 34128 ft 440 kts 279°
2026-04-23 03:41 39.05936 -79.79461 34127 ft 437 kts 279°
2026-04-23 03:42 39.06407 -79.87230 34120 ft 434 kts 279°
2026-04-23 03:42 39.06871 -79.94974 34125 ft 434 kts 279°
2026-04-23 03:43 39.07331 -80.02721 34120 ft 435 kts 279°
2026-04-23 03:43 39.07787 -80.10504 34108 ft 437 kts 279°
2026-04-23 03:44 39.08241 -80.18339 34070 ft 439 kts 279°
2026-04-23 03:44 39.08691 -80.26199 34090 ft 441 kts 279°
2026-04-23 03:45 39.09131 -80.34087 34084 ft 443 kts 278°
2026-04-23 03:45 39.09549 -80.42007 34085 ft 444 kts 278°
2026-04-23 03:46 39.09961 -80.49940 34075 ft 444 kts 278°
2026-04-23 03:46 39.10370 -80.57868 34063 ft 444 kts 278°
2026-04-23 03:47 39.10774 -80.65790 34068 ft 443 kts 278°
2026-04-23 03:47 39.11173 -80.73709 34069 ft 443 kts 278°
2026-04-23 03:48 39.11567 -80.81628 34070 ft 443 kts 278°
2026-04-23 03:48 39.11954 -80.89542 34070 ft 443 kts 278°
2026-04-23 03:49 39.12338 -80.97452 34068 ft 442 kts 278°
2026-04-23 03:49 39.12744 -81.05345 34070 ft 440 kts 282°
2026-04-23 03:50 39.14317 -81.12837 34084 ft 430 kts 297°
2026-04-23 03:50 39.17062 -81.19575 34091 ft 427 kts 302°
2026-04-23 03:51 39.19888 -81.26314 34106 ft 427 kts 301°
2026-04-23 03:51 39.22685 -81.33090 34103 ft 428 kts 301°
2026-04-23 03:52 39.25466 -81.39884 34125 ft 429 kts 301°
2026-04-23 03:52 39.28246 -81.46694 34123 ft 429 kts 301°
2026-04-23 03:53 39.31027 -81.53519 34117 ft 429 kts 301°
2026-04-23 03:53 39.33799 -81.60348 34084 ft 429 kts 301°
2026-04-23 03:54 39.36569 -81.67187 34069 ft 429 kts 301°
2026-04-23 03:54 39.39332 -81.74021 34082 ft 429 kts 301°
2026-04-23 03:55 39.42089 -81.80862 34090 ft 429 kts 301°
2026-04-23 03:55 39.44821 -81.87661 34095 ft 429 kts 301°
2026-04-23 03:56 39.47568 -81.94512 34089 ft 429 kts 301°
2026-04-23 03:56 39.50311 -82.01367 34094 ft 429 kts 301°
2026-04-23 03:57 39.53052 -82.08233 34101 ft 429 kts 301°
2026-04-23 03:57 39.55785 -82.15097 34110 ft 429 kts 301°
2026-04-23 03:58 39.58513 -82.21961 34102 ft 428 kts 301°
2026-04-23 03:58 39.61231 -82.28817 34104 ft 427 kts 301°
2026-04-23 03:59 39.63942 -82.35670 34107 ft 427 kts 301°
2026-04-23 03:59 39.66649 -82.42527 34099 ft 427 kts 301°
2026-04-23 04:00 39.69348 -82.49381 34112 ft 426 kts 301°
2026-04-23 04:00 39.72044 -82.56243 34101 ft 427 kts 301°
2026-04-23 04:01 39.74736 -82.63110 34102 ft 427 kts 301°
2026-04-23 04:01 39.77427 -82.69989 34102 ft 427 kts 301°
2026-04-23 04:02 39.80115 -82.76879 34103 ft 427 kts 300°
2026-04-23 04:02 39.82799 -82.83773 34099 ft 428 kts 300°
2026-04-23 04:03 39.85484 -82.90685 34102 ft 428 kts 300°
2026-04-23 04:03 39.88162 -82.97597 34102 ft 428 kts 300°
2026-04-23 04:04 39.90839 -83.04522 34110 ft 428 kts 300°
2026-04-23 04:04 39.93514 -83.11455 34111 ft 428 kts 300°
2026-04-23 04:05 39.96185 -83.18394 34099 ft 428 kts 300°
2026-04-23 04:05 39.98854 -83.25335 34109 ft 428 kts 300°
2026-04-23 04:06 40.01524 -83.32285 34099 ft 429 kts 300°
2026-04-23 04:06 40.04189 -83.39245 34092 ft 429 kts 300°
2026-04-23 04:07 40.06855 -83.46218 34113 ft 429 kts 300°
2026-04-23 04:07 40.09510 -83.53185 34071 ft 423 kts 299°
2026-04-23 04:08 40.10794 -83.56568 34061 ft 408 kts 299°
2026-04-23 04:08 40.12037 -83.59844 34066 ft 399 kts 299°
2026-04-23 04:08 40.14493 -83.66313 34086 ft 398 kts 299°
2026-04-23 04:09 40.16955 -83.72806 34090 ft 399 kts 299°
2026-04-23 04:09 40.19391 -83.79256 34077 ft 394 kts 299°
2026-04-23 04:10 40.21780 -83.85599 34077 ft 386 kts 299°
2026-04-23 04:10 40.24150 -83.91897 34073 ft 386 kts 299°
2026-04-23 04:11 40.26518 -83.98203 34090 ft 386 kts 298°
2026-04-23 04:11 40.28917 -84.04501 34077 ft 386 kts 303°
2026-04-23 04:12 40.32147 -84.10076 34076 ft 385 kts 311°
2026-04-23 04:12 40.35572 -84.15484 34081 ft 386 kts 311°
2026-04-23 04:13 40.38979 -84.20939 34076 ft 387 kts 310°
2026-04-23 04:13 40.42361 -84.26437 34080 ft 387 kts 310°
2026-04-23 04:14 40.45731 -84.31954 34074 ft 387 kts 310°
2026-04-23 04:14 40.49088 -84.37470 34083 ft 387 kts 310°
2026-04-23 04:15 40.52444 -84.42993 34062 ft 386 kts 310°
2026-04-23 04:16 40.57467 -84.51279 34061 ft 386 kts 310°
2026-04-23 04:16 40.60811 -84.56806 34062 ft 386 kts 310°
2026-04-23 04:17 40.63586 -84.61402 34056 ft 386 kts 310°
2026-04-23 04:17 40.66922 -84.66935 34042 ft 386 kts 309°
2026-04-23 04:18 40.70254 -84.72470 34058 ft 385 kts 309°
2026-04-23 04:18 40.73582 -84.78009 34057 ft 386 kts 309°
2026-04-23 04:19 40.76911 -84.83560 34057 ft 386 kts 309°
2026-04-23 04:19 40.80240 -84.89121 34072 ft 386 kts 309°
2026-04-23 04:20 40.83570 -84.94694 34057 ft 387 kts 309°
2026-04-23 04:20 40.86898 -85.00273 34060 ft 386 kts 309°
2026-04-23 04:21 40.90221 -85.05855 34047 ft 386 kts 309°
2026-04-23 04:21 40.93538 -85.11437 34066 ft 386 kts 309°
2026-04-23 04:22 40.96853 -85.17023 34065 ft 386 kts 309°
2026-04-23 04:22 41.00310 -85.22453 34066 ft 386 kts 313°
2026-04-23 04:23 41.03968 -85.27651 34074 ft 386 kts 313°
2026-04-23 04:23 41.07614 -85.32872 34046 ft 386 kts 313°
2026-04-23 04:24 41.11238 -85.38129 34038 ft 386 kts 313°
2026-04-23 04:24 41.14858 -85.43400 34020 ft 386 kts 313°
2026-04-23 04:25 41.18143 -85.49007 34034 ft 388 kts 296°
2026-04-23 04:25 41.19887 -85.55842 34057 ft 397 kts 289°
2026-04-23 04:25 41.20701 -85.59395 33665 ft 412 kts 289°
2026-04-23 04:26 41.21559 -85.63103 33117 ft 426 kts 289°
2026-04-23 04:26 41.22439 -85.66854 32459 ft 425 kts 289°
2026-04-23 04:26 41.23327 -85.70599 31766 ft 425 kts 289°
2026-04-23 04:26 41.24221 -85.74345 31076 ft 426 kts 289°
2026-04-23 04:27 41.25119 -85.78098 30368 ft 427 kts 289°
2026-04-23 04:27 41.26017 -85.81860 29548 ft 427 kts 289°
2026-04-23 04:27 41.26896 -85.85638 28702 ft 430 kts 287°
2026-04-23 04:28 41.27652 -85.93747 26992 ft 451 kts 276°
2026-04-23 04:28 41.27907 -85.97909 26045 ft 452 kts 277°
2026-04-23 04:28 41.28214 -86.02066 25388 ft 449 kts 278°
2026-04-23 04:28 41.28568 -86.06135 24802 ft 444 kts 280°
2026-04-23 04:29 41.29028 -86.10165 24248 ft 449 kts 281°
2026-04-23 04:29 41.29542 -86.14273 23687 ft 449 kts 282°
2026-04-23 04:29 41.30053 -86.18337 23067 ft 443 kts 281°
2026-04-23 04:29 41.30551 -86.22375 22545 ft 442 kts 281°
2026-04-23 04:30 41.31037 -86.26420 22033 ft 444 kts 281°
2026-04-23 04:30 41.31512 -86.30463 21528 ft 441 kts 280°
2026-04-23 04:30 41.31977 -86.34471 21034 ft 437 kts 280°
2026-04-23 04:30 41.32437 -86.38452 20548 ft 434 kts 280°
2026-04-23 04:31 41.32892 -86.42406 20077 ft 431 kts 280°
2026-04-23 04:31 41.33346 -86.46343 19589 ft 430 kts 280°
2026-04-23 04:31 41.33796 -86.50267 19113 ft 428 kts 280°
2026-04-23 04:31 41.34292 -86.54156 18628 ft 425 kts 285°
2026-04-23 04:32 41.35438 -86.57744 18120 ft 420 kts 301°
2026-04-23 04:32 41.36860 -86.61121 17626 ft 417 kts 300°
2026-04-23 04:32 41.38186 -86.64481 17135 ft 406 kts 299°
2026-04-23 04:32 41.39530 -86.67697 16654 ft 389 kts 308°
2026-04-23 04:33 41.41425 -86.70149 16221 ft 373 kts 326°
2026-04-23 04:33 41.43640 -86.71800 15814 ft 359 kts 335°
2026-04-23 04:33 41.45871 -86.73193 15407 ft 349 kts 336°
2026-04-23 04:33 41.48039 -86.74555 15014 ft 340 kts 335°
2026-04-23 04:34 41.50146 -86.75910 14657 ft 334 kts 335°
2026-04-23 04:34 41.52222 -86.77262 14283 ft 330 kts 335°
2026-04-23 04:34 41.54358 -86.78292 13891 ft 325 kts 352°
2026-04-23 04:34 41.56603 -86.78535 13532 ft 325 kts 356°
2026-04-23 04:35 41.58791 -86.79258 13224 ft 330 kts 332°
2026-04-23 04:35 41.60538 -86.81280 12999 ft 338 kts 309°
2026-04-23 04:35 41.61621 -86.84055 12752 ft 339 kts 289°
2026-04-23 04:35 41.61956 -86.87157 12478 ft 339 kts 269°
2026-04-23 04:36 41.61712 -86.90281 12245 ft 338 kts 264°
2026-04-23 04:36 41.61382 -86.93392 12074 ft 338 kts 263°
2026-04-23 04:36 41.61037 -86.96522 12042 ft 342 kts 263°
2026-04-23 04:36 41.60698 -86.99667 12018 ft 342 kts 263°
2026-04-23 04:37 41.60368 -87.02811 12004 ft 341 kts 263°
2026-04-23 04:37 41.60046 -87.05950 12008 ft 341 kts 264°
2026-04-23 04:37 41.59727 -87.09089 12017 ft 341 kts 264°
2026-04-23 04:37 41.59410 -87.12236 12013 ft 342 kts 264°
2026-04-23 04:38 41.59092 -87.15380 12019 ft 342 kts 264°
2026-04-23 04:38 41.58773 -87.18526 12002 ft 342 kts 264°
2026-04-23 04:38 41.58491 -87.21677 11998 ft 341 kts 270°
2026-04-23 04:38 41.58810 -87.24781 12021 ft 337 kts 290°
2026-04-23 04:39 41.59833 -87.27565 12023 ft 334 kts 306°
2026-04-23 04:39 41.61201 -87.30072 12018 ft 334 kts 309°
2026-04-23 04:39 41.62609 -87.32539 12002 ft 334 kts 309°
2026-04-23 04:39 41.64022 -87.35007 12004 ft 334 kts 309°
2026-04-23 04:40 41.65429 -87.37480 12008 ft 334 kts 309°
2026-04-23 04:40 41.66829 -87.39964 12002 ft 335 kts 308°
2026-04-23 04:40 41.68225 -87.42455 12007 ft 335 kts 308°
2026-04-23 04:40 41.69618 -87.44952 12005 ft 335 kts 308°
2026-04-23 04:41 41.71009 -87.47454 12005 ft 335 kts 308°
2026-04-23 04:41 41.72399 -87.49959 12002 ft 335 kts 308°
2026-04-23 04:41 41.73788 -87.52464 12005 ft 335 kts 308°
2026-04-23 04:41 41.75175 -87.54969 12003 ft 335 kts 308°
2026-04-23 04:42 41.76562 -87.57477 12013 ft 335 kts 308°
2026-04-23 04:42 41.77946 -87.59981 12010 ft 335 kts 308°
2026-04-23 04:42 41.79329 -87.62484 12008 ft 334 kts 308°
2026-04-23 04:42 41.80714 -87.64992 12015 ft 334 kts 308°
2026-04-23 04:43 41.82093 -87.67495 12002 ft 334 kts 307°
2026-04-23 04:43 41.83266 -87.70182 11996 ft 336 kts 294°
2026-04-23 04:43 41.83978 -87.73160 12013 ft 336 kts 286°
2026-04-23 04:43 41.84470 -87.76222 11989 ft 335 kts 275°
2026-04-23 04:44 41.84346 -87.79274 11707 ft 335 kts 264°
2026-04-23 04:44 41.84129 -87.82389 11313 ft 337 kts 267°
2026-04-23 04:44 41.83985 -87.85543 10975 ft 337 kts 268°
2026-04-23 04:44 41.83860 -87.88655 10720 ft 331 kts 268°
2026-04-23 04:45 41.83747 -87.91673 10515 ft 322 kts 268°
2026-04-23 04:45 41.83639 -87.94639 10318 ft 315 kts 268°
2026-04-23 04:45 41.83537 -87.97495 10147 ft 307 kts 268°
2026-04-23 04:45 41.83436 -88.00357 9995 ft 299 kts 268°
2026-04-23 04:46 41.83344 -88.03016 9968 ft 287 kts 268°
2026-04-23 04:46 41.83256 -88.05653 9898 ft 279 kts 268°
2026-04-23 04:46 41.83173 -88.08234 9871 ft 276 kts 268°
2026-04-23 04:46 41.83092 -88.10853 9809 ft 279 kts 268°
2026-04-23 04:47 41.83016 -88.13424 9672 ft 278 kts 268°
2026-04-23 04:47 41.83188 -88.15980 9283 ft 275 kts 291°
2026-04-23 04:47 41.84300 -88.18015 8699 ft 275 kts 326°
2026-04-23 04:47 41.86081 -88.18858 8167 ft 274 kts
2026-04-23 04:48 41.87805 -88.18160 8067 ft 251 kts 35°
2026-04-23 04:48 41.89275 -88.17097 7881 ft 235 kts 13°
2026-04-23 04:48 41.90889 -88.16873 7417 ft 233 kts
2026-04-23 04:48 41.92513 -88.16702 6870 ft 235 kts
2026-04-23 04:49 41.94141 -88.16542 6374 ft 234 kts
2026-04-23 04:49 41.95764 -88.16393 5850 ft 234 kts
2026-04-23 04:49 41.97352 -88.16059 5414 ft 229 kts 23°
2026-04-23 04:49 41.98517 -88.14688 4912 ft 226 kts 63°
2026-04-23 04:50 41.98883 -88.12663 4407 ft 223 kts 89°
2026-04-23 04:50 41.98892 -88.10586 3933 ft 221 kts 93°
2026-04-23 04:50 41.98869 -88.08531 3442 ft 219 kts 93°
2026-04-23 04:50 41.98851 -88.06499 3071 ft 211 kts 93°
2026-04-23 04:51 41.98845 -88.04604 2872 ft 197 kts 93°
2026-04-23 04:51 41.98835 -88.02774 2407 ft 193 kts 94°
2026-04-23 04:51 41.98821 -88.00977 2049 ft 187 kts 93°
2026-04-23 04:51 41.98834 -87.99288 1724 ft 180 kts 92°
2026-04-23 04:52 41.98830 -87.97627 1431 ft 167 kts 92°
2026-04-23 04:52 41.98822 -87.96152 1174 ft 154 kts 91°
2026-04-23 04:52 41.98821 -87.94729 940 ft 148 kts 90°
2026-04-23 04:52 41.98831 -87.93359 766 ft 146 kts 90°
2026-04-23 04:53 41.98829 -87.92064 671 ft 128 kts 88°
2026-04-23 04:53 41.98831 -87.91058 669 ft 87 kts 90°
2026-04-23 04:53 41.98831 -87.90446 667 ft 44 kts 90°
2026-04-23 04:53 41.98826 -87.90127 669 ft 22 kts 105°
2026-04-23 04:54 41.98731 -87.90041 668 ft 15 kts 181°
2026-04-23 04:54 41.98673 -87.90040 668 ft 7 kts 179°
2026-04-23 04:54 41.98622 -87.90040 668 ft 8 kts 180°
2026-04-23 04:54 41.98547 -87.90040 668 ft 14 kts 180°
2026-04-23 04:55 41.98437 -87.90040 670 ft 18 kts 180°
2026-04-23 04:55 41.98318 -87.90040 669 ft 11 kts 182°
2026-04-23 04:55 41.98288 -87.90131 668 ft 15 kts 269°
2026-04-23 04:55 41.98287 -87.90282 668 ft 16 kts 270°
2026-04-23 04:56 41.98288 -87.90430 667 ft 16 kts 270°
2026-04-23 04:56 41.98288 -87.90572 667 ft 15 kts 270°
2026-04-23 04:56 41.98288 -87.90725 667 ft 20 kts 270°
2026-04-23 04:56 41.98288 -87.90933 672 ft 23 kts 268°
2026-04-23 04:57 41.98210 -87.91143 668 ft 28 kts 228°
2026-04-23 04:57 41.98049 -87.91291 668 ft 28 kts 208°
2026-04-23 04:57 41.97882 -87.91388 668 ft 24 kts 190°
2026-04-23 04:57 41.97721 -87.91376 668 ft 23 kts 164°
2026-04-23 04:58 41.97565 -87.91267 668 ft 29 kts 140°
2026-04-23 04:58 41.97405 -87.91086 668 ft 30 kts 140°
2026-04-23 04:58 41.97257 -87.90905 668 ft 28 kts 134°
2026-04-23 04:58 41.97177 -87.90774 667 ft 27 kts 117°
2026-04-23 04:59 41.97143 -87.90538 668 ft 25 kts 95°
2026-04-23 04:59 41.97135 -87.90315 668 ft 21 kts 90°
2026-04-23 04:59 41.97136 -87.90144 668 ft 14 kts 90°
2026-04-23 04:59 41.97137 -87.90019 668 ft 13 kts 89°
2026-04-23 05:00 41.97141 -87.89902 668 ft 11 kts 72°
2026-04-23 05:00 41.97196 -87.89870 668 ft 5 kts 346°
2026-04-23 05:00 41.97223 -87.89848 666 ft 5 kts 59°
2026-04-23 05:00 41.97244 -87.89798 668 ft 6 kts 62°
2026-04-23 05:01 41.97265 -87.89745 668 ft 6 kts 61°
2026-04-23 05:01 41.97286 -87.89695 667 ft 6 kts 60°
2026-04-23 05:01 41.97311 -87.89648 666 ft 6 kts 33°
2026-04-23 05:01 41.97340 -87.89652 668 ft 3 kts 340°
2026-04-23 05:02 41.97361 -87.89661 668 ft 3 kts 342°
2026-04-23 05:02 41.97378 -87.89668 668 ft 1 kts 343°
2026-04-23 05:02 41.97383 -87.89670 668 ft 1 kts 343°
2026-04-23 05:02 41.97384 -87.89671 668 ft 0 kts 343°
2026-04-23 05:04 41.97383 -87.89670 668 ft 0 kts 343°